Rolla, MO

3:48 AM CST on February 21, 2018 (GMT -0600)
Rolla National

Weather History for KVIH - January, 2014

Change the Weather History Date:

Friday, January 17, 2014

  Actual Average Record
Temperature  
Mean Temperature 19 °F 31 °F  
Max Temperature 26 °F 41 °F 70 °F (1952)
Min Temperature 12 °F 21 °F -13 °F (1977)
Degree Days  
Heating Degree Days 46 34  
Month to date heating degree days 659 578  
Since 1 July heating degree days 2746 2495  
Cooling Degree Days 0 0  
Month to date cooling degree days 0 0  
Year to date cooling degree days 0 0  
Moisture  
Dew Point 7 °F    
Average Humidity 59    
Maximum Humidity 76    
Minimum Humidity 42    
Precipitation  
Precipitation T in 0.08 in 1.30 in (1900)
Month to date precipitation 0.84 1.29  
Year to date precipitation 0.84 1.29  
Sea Level Pressure  
Sea Level Pressure 30.03 in    
Wind  
Wind Speed 14 mph (WNW)    
Max Wind Speed 28 mph    
Max Gust Speed 37 mph    
Visibility 8 miles    
Events Snow    
T = Trace of Precipitation, MM = Missing Value Source: NWS Daily Summary

Daily Weather History Graph

Daily Weather History Graph

Search for Another Location

Airport or City:

Trip Planner

Search our weather history database for the weather conditions in past years. The results will help you decide how hot, cold, wet, or windy it might be!

Date:

Astronomy

Jan. 17, 2014 Rise Set
Actual Time 7:21 AM CST 5:13 PM CST
Civil Twilight 6:52 AM CST 5:42 PM CST
Nautical Twilight 6:20 AM CST 6:14 PM CST
Astronomical Twilight 5:48 AM CST 6:46 PM CST
Moon 6:57 PM CST (1/17) 7:51 AM CST (1/17)
Length of Visible Light 10h 49m
Length of Day
9h 51m
Full, 98% of the Moon is Illuminated
Jan 17
Full
Jan 23
Last Quarter
Jan 30
New
Feb 6
First Quarter
Feb 14
Full

Hourly Weather History & Observations

Time (CST) Temp. Windchill Dew Point Humidity Pressure Visibility Wind Dir Wind Speed Gust Speed Precip Events Conditions
12:53 AM 19.0 °F 1.6 °F 3.9 °F 52% 29.95 in 10.0 mi WNW 24.2 mph 38.0 mph N/A   Mostly Cloudy
1:53 AM 17.1 °F 2.5 °F 6.1 °F 62% 29.96 in 10.0 mi WNW 15.0 mph 20.7 mph N/A   Overcast
2:07 AM 17.1 °F 0.6 °F 8.1 °F 68% 29.94 in 3.0 mi NW 19.6 mph 25.3 mph 0.00 in Snow Light Snow
2:15 AM 16.0 °F -1.7 °F 9.0 °F 74% 29.94 in 2.0 mi WNW 21.9 mph 28.8 mph 0.00 in Snow Light Snow
2:30 AM 16.0 °F -2.5 °F 7.0 °F 68% 29.94 in 8.0 mi WNW 24.2 mph 34.5 mph 0.00 in Snow Light Snow
2:38 AM 16.0 °F -2.1 °F 5.0 °F 62% 29.95 in 10.0 mi WNW 23.0 mph 35.7 mph 0.00 in   Overcast
2:53 AM 15.1 °F -2.0 °F 5.0 °F 64% 29.99 in 9.0 mi WNW 19.6 mph 35.7 mph 0.00 in   Overcast
3:24 AM 14.0 °F -3.0 °F 7.0 °F 74% 29.96 in 4.0 mi WNW 18.4 mph 26.5 mph 0.00 in Snow Light Snow
3:35 AM 14.0 °F 1.2 °F 5.0 °F 67% 29.96 in 9.0 mi WNW 10.4 mph 21.9 mph 0.00 in   Mostly Cloudy
3:53 AM 15.1 °F -0.6 °F 3.0 °F 59% 30.00 in 10.0 mi WNW 16.1 mph 25.3 mph 0.00 in   Mostly Cloudy
4:53 AM 14.0 °F -2.0 °F 3.0 °F 62% 30.00 in 10.0 mi WNW 16.1 mph 25.3 mph N/A   Overcast
5:53 AM 15.1 °F 0.5 °F 5.0 °F 64% 30.01 in 10.0 mi West 13.8 mph - N/A   Overcast
6:25 AM 15.1 °F -0.6 °F 6.1 °F 68% 29.97 in 10.0 mi WNW 16.1 mph 23.0 mph N/A   Overcast
6:41 AM 16.0 °F 2.9 °F 7.0 °F 68% 29.97 in 10.0 mi WNW 11.5 mph - N/A   Overcast
6:53 AM 16.0 °F 2.9 °F 7.0 °F 68% 30.01 in 10.0 mi WNW 11.5 mph 18.4 mph N/A   Overcast
7:38 AM 16.0 °F 1.1 °F 10.0 °F 77% 29.97 in 4.0 mi West 15.0 mph - 0.00 in Snow Light Snow
7:49 AM 15.8 °F 2.1 °F 10.4 °F 79% 29.97 in 2.5 mi West 12.7 mph - 0.00 in Snow Light Snow
7:53 AM 16.0 °F 1.1 °F 10.9 °F 81% 30.01 in 2.5 mi West 15.0 mph 19.6 mph 0.00 in Snow Light Snow
8:05 AM 17.1 °F 1.5 °F 10.0 °F 74% 29.98 in 5.0 mi West 17.3 mph 26.5 mph 0.00 in Snow Light Snow
8:48 AM 17.6 °F 2.7 °F 6.8 °F 63% 30.00 in 10.0 mi WNW 16.1 mph 21.9 mph 0.00 in   Overcast
8:53 AM 17.1 °F 2.5 °F 7.0 °F 65% 30.04 in 10.0 mi WNW 15.0 mph - 0.00 in   Overcast
9:14 AM 17.1 °F 5.0 °F 7.0 °F 65% 30.01 in 10.0 mi NW 10.4 mph - N/A   Overcast
9:50 AM 17.6 °F 3.2 °F 8.6 °F 68% 30.02 in 2.5 mi West 15.0 mph - 0.00 in Snow Light Snow
9:53 AM 17.1 °F 3.6 °F 10.0 °F 74% 30.06 in 2.5 mi WNW 12.7 mph - 0.00 in Snow Light Snow
10:01 AM 17.1 °F 1.0 °F 9.0 °F 71% 30.02 in 6.0 mi WNW 18.4 mph 25.3 mph 0.00 in Snow Light Snow
10:19 AM 17.1 °F 0.1 °F 5.0 °F 59% 30.03 in 10.0 mi West 20.7 mph 28.8 mph 0.00 in   Overcast
10:53 AM 18.0 °F 2.2 °F 6.1 °F 60% 30.09 in 10.0 mi WNW 18.4 mph 26.5 mph 0.00 in   Overcast
11:53 AM 19.9 °F 5.7 °F 6.1 °F 55% 30.08 in 10.0 mi West 16.1 mph - N/A   Overcast
12:53 PM 21.0 °F 6.2 °F 6.1 °F 53% 30.08 in 10.0 mi WNW 18.4 mph - N/A   Overcast
1:53 PM 23.0 °F 9.2 °F 6.1 °F 48% 30.09 in 10.0 mi NW 17.3 mph 25.3 mph N/A   Overcast
2:53 PM 25.0 °F 12.2 °F 7.0 °F 46% 30.10 in 10.0 mi NW 16.1 mph 25.3 mph N/A   Partly Cloudy
3:53 PM 26.1 °F 13.6 °F 7.0 °F 44% 30.12 in 10.0 mi West 16.1 mph - N/A   Clear
4:53 PM 25.0 °F 14.8 °F 7.0 °F 46% 30.13 in 10.0 mi WNW 10.4 mph - N/A   Clear
5:53 PM 23.0 °F 12.4 °F 7.0 °F 50% 30.13 in 10.0 mi WNW 10.4 mph - N/A   Clear
6:53 PM 19.9 °F 11.1 °F 7.0 °F 57% 30.13 in 10.0 mi West 6.9 mph - N/A   Clear
7:53 PM 18.0 °F 7.7 °F 8.1 °F 65% 30.13 in 10.0 mi West 8.1 mph - N/A   Clear
8:53 PM 18.0 °F 8.7 °F 7.0 °F 62% 30.13 in 10.0 mi West 6.9 mph - N/A   Clear
9:53 PM 19.0 °F 10.0 °F 7.0 °F 59% 30.13 in 10.0 mi West 6.9 mph - N/A   Clear
10:53 PM 12.9 °F 2.6 °F 7.0 °F 77% 30.13 in 10.0 mi SW 6.9 mph - N/A   Clear
11:53 PM 17.1 °F 8.7 °F 9.0 °F 71% 30.09 in 10.0 mi SW 5.8 mph - N/A   Clear